Regional Weather Roundup
Issued by NWS

Home | Current Version | Previous Version | Text Only | Print | Product List | Glossary Off
Versions: 1 2 3 4 5 6 7 8 9 10 11 12 13 14 15 16 17 18 19 20 21 22 23 24 25 26 27

000
ASUS45 KCYS 251110
RWRWY

WYOMING REGIONAL WEATHER ROUNDUP
NATIONAL WEATHER SERVICE CHEYENNE WY
500 AM MDT MON JUL 25 2016

NOTE:  "FAIR" INDICATES FEW OR NO CLOUDS BELOW 12,000 FEET
WITH NO SIGNIFICANT WEATHER AND/OR OBSTRUCTIONS TO VISIBILITY.

WYZ001-251200-
YELLOWSTONE NATIONAL PARK

CITY           SKY/WX    TMP DP  RH WIND       PRES   REMARKS
LK YELLOWSTONE   N/A     37  32  82 CALM      30.38R
W YELLOWSTONE  NOT AVBL

$$
WYZ002>013-054>058-071-098>099-251200-
NORTHERN WYOMING

CITY           SKY/WX    TMP DP  RH WIND       PRES   REMARKS
JACKSON        FAIR      41  34  75 N6        30.29R
CODY           FAIR      64  32  29 SW5       30.13S
GREYBULL       FAIR      60  34  37 CALM      30.06R
WORLAND        FAIR      55  31  39 CALM      30.07R
SHERIDAN       FAIR      57  43  59 SW5       30.05S
BUFFALO        FAIR      64  37  36 NE3       30.13S
GILLETTE       FAIR      62  52  69 N5        30.11S
HULETT         FAIR      68  52  56 W8        30.11S
NEWCASTLE      FAIR      68  48  49 E8        30.14S

$$
WYZ014>020-022>026-101>103-251200-
CENTRAL WYOMING

CITY           SKY/WX    TMP DP  RH WIND       PRES   REMARKS
BIG PINEY      FAIR      38  26  62 NW5       30.31R WCI  34
PINEDALE       FAIR      37  32  81 W8        30.31S WCI  31
DUBOIS         CLOUDY    46  28  49 NW13      30.30S HAZE
LANDER         FAIR      59  33  37 E3        30.18R
RIVERTON       FAIR      57  37  47 NW10      30.16R
CASPER         FAIR      49  44  83 CALM      30.17R
DOUGLAS          N/A    N/A N/A N/A MISG      30.15S

$$
WYZ021-027>030-104>119-251200-
SOUTHERN WYOMING

CITY           SKY/WX    TMP DP  RH WIND       PRES   REMARKS
EVANSTON       FAIR      58  23  26 S3        30.30S
KEMMERER         N/A     50  27  40 NW12      30.33R
FORT BRIDGER   FAIR      66  18  15 S6        30.32S
ROCK SPRINGS   FAIR      58  17  20 CALM      30.27R
DIXON          FAIR      46  35  65 NE3       30.30R
RAWLINS        FAIR      44  35  70 CALM      30.27R
SARATOGA       FAIR      54  34  47 CALM      30.30R
LARAMIE        FAIR      50  49  96 S9        30.29S
CHEYENNE       FAIR      55  53  93 SW7       30.24F
TORRINGTON     FAIR      59  55  87 E9        30.14S
PINE BLUFFS    FAIR      52  52 100 S6        30.22S

$$




USA.gov is the U.S. government's official web portal to all federal, state and local government web resources and services.